Location: Augsburg
(48.3836°N, 10.8929°E)
Time: 09:53:04
(UTC+01:00)

Tiangong 1 - Visible Passes

Search period start: 22 November 2017 00:00
Search period end: 02 December 2017 00:00
Orbit: 284 x 308 km, 42.8° (Epoch: 21 November)

Date Brightness Start Highest point End Pass type
(mag) Time Alt. Az. Time Alt. Az. Time Alt. Az.
27 Nov 3.0 18:00:47 10° SSW 18:02:10 13° SSE 18:02:28 13° SSE visible
28 Nov 2.7 18:06:14 10° SSW 18:08:07 18° SSE 18:08:19 18° SSE visible
29 Nov 2.5 18:11:52 10° SW 18:13:57 21° S 18:14:01 21° S visible
30 Nov 2.5 18:17:32 10° SW 18:19:37 23° S 18:19:37 23° S visible
01 Dec 2.7 18:23:11 10° WSW 18:25:07 22° SSW 18:25:07 22° SSW visible
